Location: Nairn
(57.5833°N, 3.8667°W)
Time: 11:05:58
(UTC+00:00)

Vanguard 1 - Pass Details

Date: 03 December 2020
Orbit: 648 x 3834 km, 34.3° (Epoch: 17 January)

Event Time Altitude Azimuth Distance (km) Brightness Sun altitude
Exits shadow 05:23:01 - 201° (SSW) 3,194 12.5 -24.2°
Reaches altitude 10° 05:26:43 10° 171° (S) 3,034 12.7 -23.7°
Maximum altitude 05:27:59 11° 161° (SSE) 3,144 12.9 -23.5°
Drops below altitude 10° 05:29:21 10° 151° (SSE) 3,343 13.2 -23.3°
Sets 05:37:02 0° 118° (ESE) 5,262 15.0 -22.3°
